Volver al catálogo

CZ-6A DEB

ActivoPO
NORAD 61796·DEBRIS·🇨🇳 China

Lanzado Aug 6, 2024 desde Taiyuan Satellite Launch Center

Loading…

Próximos Pases (próximas 24 horas)

TLE

ActualizadoSource: Space-Track

Época: Sep 14, 2026, 09:43 UTC

1 61796U 24140ABL 26257.40534309  .00000529  00000-0  26518-3 0  9991
2 61796  88.7963 247.6428 0072840 290.9863  68.3541 14.13920718105495

Sigue CZ-6A DEB en tiempo real con AllMySat

Download on the App Store